When you browse on this site, cookies collect data to enhance your experience and personalize the content and advertising you see.
Visit our Privacy Policy to learn more. By continuing to use the site, you agree to this use of cookies and data.
  • In Lithuania
  • List of Countries
  • For 7 days
  • Water Temperature
  • Weather Map
  • Weather Widgets
  • user-avatar
    Login

    Hourly Weather Shusha

    Today, 15 October, Tuesday

    Time Temperature Precipitation Wind Pressure Humidity
    00:00 +10°C° 0 mm 0 mps 666 mmHg 60%
    01:00 +10°C° 0 mm 0 mps 665 mmHg 59%
    02:00 +11°C° 0 mm 1 mps 665 mmHg 59%
    03:00 +10°C° 0 mm 1 mps 665 mmHg 59%
    04:00 +10°C° 0 mm 1 mps 665 mmHg 59%
    05:00 +10°C° 0 mm 1 mps 665 mmHg 59%
    06:00 +10°C° 0 mm 1 mps 664 mmHg 60%
    07:00 +12°C° 0 mm 1 mps 665 mmHg 53%
    08:00 +14°C° 0 mm 1 mps 666 mmHg 47%
    09:00 +16°C° 0 mm 1 mps 666 mmHg 40%
    10:00 +18°C° 0 mm 1 mps 666 mmHg 39%
    11:00 +18°C° 0 mm 2 mps 666 mmHg 37%
    12:00 +19°C° 0 mm 2 mps 666 mmHg 36%
    13:00 +19°C° 0 mm 2 mps 665 mmHg 37%
    14:00 +19°C° 0 mm 2 mps 665 mmHg 39%
    15:00 +19°C° 0 mm 2 mps 664 mmHg 40%
    16:00 +19°C° 0 mm 1 mps 664 mmHg 46%
    17:00 +16°C° 0 mm 1 mps 663 mmHg 52%
    18:00 +13°C° 0 mm 0 mps 663 mmHg 58%
    19:00 +14°C° 0 mm 1 mps 663 mmHg 57%
    20:00 +14°C° 0 mm 1 mps 663 mmHg 55%
    21:00 +14°C° 0 mm 1 mps 663 mmHg 54%
    22:00 +14°C° 0 mm 1 mps 663 mmHg 52%
    23:00 +13°C° 0 mm 1 mps 663 mmHg 51%

    Tomorrow, 16 October, Wednesday

    Time Temperature Precipitation Wind Pressure Humidity
    00:00 +13°C° 0 mm 1 mps 663 mmHg 49%
    01:00 +13°C° 0 mm 1 mps 663 mmHg 48%
    02:00 +13°C° 0 mm 1 mps 662 mmHg 48%
    03:00 +13°C° 0 mm 1 mps 662 mmHg 47%
    04:00 +13°C° 0 mm 1 mps 662 mmHg 46%
    05:00 +13°C° 0 mm 1 mps 662 mmHg 45%
    06:00 +12°C° 0 mm 1 mps 662 mmHg 44%
    07:00 +15°C° 0 mm 1 mps 663 mmHg 40%
    08:00 +18°C° 0 mm 1 mps 664 mmHg 36%
    09:00 +20°C° 0 mm 1 mps 665 mmHg 32%
    10:00 +21°C° 0 mm 1 mps 665 mmHg 31%
    11:00 +21°C° 0 mm 2 mps 664 mmHg 31%
    12:00 +23°C° 0 mm 2 mps 664 mmHg 30%
    13:00 +23°C° 0 mm 2 mps 664 mmHg 32%
    14:00 +23°C° 0 mm 2 mps 664 mmHg 34%
    15:00 +23°C° 0 mm 2 mps 663 mmHg 36%
    16:00 +20°C° 0 mm 2 mps 663 mmHg 42%
    17:00 +19°C° 0 mm 1 mps 662 mmHg 48%
    18:00 +15°C° 0 mm 0 mps 662 mmHg 54%
    19:00 +15°C° 0 mm 1 mps 662 mmHg 53%
    20:00 +15°C° 0 mm 1 mps 662 mmHg 52%
    21:00 +15°C° 0 mm 1 mps 663 mmHg 51%
    22:00 +14°C° 0 mm 1 mps 663 mmHg 51%
    23:00 +14°C° 0 mm 1 mps 663 mmHg 52%

    Day after tomorrow, 17 October, Thursday

    Time Temperature Precipitation Wind Pressure Humidity
    00:00 +13°C° 0 mm 1 mps 663 mmHg 52%
    01:00 +13°C° 0 mm 1 mps 662 mmHg 52%
    02:00 +13°C° 0 mm 1 mps 662 mmHg 52%
    03:00 +13°C° 0 mm 1 mps 662 mmHg 52%
    04:00 +12°C° 0 mm 1 mps 663 mmHg 52%
    05:00 +12°C° 0 mm 1 mps 663 mmHg 52%
    06:00 +12°C° 0 mm 1 mps 663 mmHg 52%
    07:00 +14°C° 0 mm 1 mps 663 mmHg 49%
    08:00 +15°C° 0 mm 1 mps 664 mmHg 46%
    09:00 +18°C° 0 mm 1 mps 665 mmHg 43%
    10:00 +19°C° 0 mm 1 mps 664 mmHg 44%
    11:00 +19°C° 0 mm 2 mps 664 mmHg 44%
    12:00 +19°C° 0 mm 2 mps 664 mmHg 44%
    13:00 +19°C° 0 mm 2 mps 664 mmHg 46%
    14:00 +19°C° 0 mm 2 mps 663 mmHg 48%
    15:00 +19°C° 0 mm 2 mps 663 mmHg 50%
    16:00 +18°C° 0 mm 1 mps 663 mmHg 56%
    17:00 +16°C° 0 mm 1 mps 662 mmHg 62%
    18:00 +13°C° 0 mm 0 mps 662 mmHg 68%
    19:00 +13°C° 0 mm 0 mps 662 mmHg 67%
    20:00 +14°C° 0 mm 1 mps 662 mmHg 67%
    21:00 +13°C° 0 mm 1 mps 662 mmHg 66%
    22:00 +13°C° 0 mm 1 mps 662 mmHg 64%
    23:00 +13°C° 0 mm 1 mps 662 mmHg 62%

    18 October, Friday

    Time Temperature Precipitation Wind Pressure Humidity
    00:00 +13°C° 0 mm 1 mps 662 mmHg 60%
    01:00 +13°C° 0 mm 1 mps 661 mmHg 57%
    02:00 +13°C° 0 mm 1 mps 661 mmHg 55%
    03:00 +12°C° 0 mm 1 mps 661 mmHg 53%
    04:00 +12°C° 0 mm 1 mps 661 mmHg 51%
    05:00 +12°C° 0 mm 1 mps 661 mmHg 49%
    06:00 +12°C° 0 mm 1 mps 661 mmHg 47%
    07:00 +14°C° 0 mm 1 mps 662 mmHg 42%
    08:00 +18°C° 0 mm 1 mps 662 mmHg 38%
    09:00 +20°C° 0 mm 1 mps 663 mmHg 34%
    10:00 +21°C° 0 mm 1 mps 663 mmHg 33%
    11:00 +21°C° 0 mm 2 mps 663 mmHg 33%
    12:00 +23°C° 0 mm 2 mps 663 mmHg 33%
    13:00 +23°C° 0 mm 2 mps 662 mmHg 35%
    14:00 +23°C° 0 mm 2 mps 662 mmHg 37%
    15:00 +23°C° 0 mm 2 mps 661 mmHg 39%
    16:00 +21°C° 0 mm 1 mps 661 mmHg 45%
    17:00 +19°C° 0 mm 1 mps 661 mmHg 51%
    18:00 +16°C° 0 mm 1 mps 660 mmHg 57%
    19:00 +16°C° 0 mm 1 mps 660 mmHg 56%
    20:00 +16°C° 0 mm 1 mps 661 mmHg 56%
    21:00 +15°C° 0 mm 1 mps 661 mmHg 55%
    22:00 +15°C° 0 mm 1 mps 661 mmHg 55%
    23:00 +15°C° 0 mm 1 mps 660 mmHg 55%

    19 October, Saturday

    Time Temperature Precipitation Wind Pressure Humidity
    00:00 +15°C° 0 mm 1 mps 660 mmHg 54%
    01:00 +14°C° 0 mm 1 mps 660 mmHg 55%
    02:00 +13°C° 0 mm 0 mps 660 mmHg 55%
    03:00 +13°C° 0 mm 0 mps 660 mmHg 56%
    04:00 +12°C° 0 mm 0 mps 660 mmHg 56%
    05:00 +13°C° 0 mm 1 mps 661 mmHg 56%
    06:00 +13°C° 0 mm 1 mps 661 mmHg 56%
    07:00 +15°C° 0 mm 1 mps 662 mmHg 52%
    08:00 +18°C° 0 mm 1 mps 662 mmHg 48%
    09:00 +20°C° 0 mm 1 mps 663 mmHg 45%
    10:00 +20°C° 0 mm 1 mps 663 mmHg 44%
    11:00 +20°C° 0 mm 2 mps 663 mmHg 44%
    12:00 +21°C° 0 mm 2 mps 663 mmHg 44%
    13:00 +20°C° 0 mm 2 mps 663 mmHg 46%
    14:00 +20°C° 0 mm 2 mps 662 mmHg 48%
    15:00 +20°C° 0 mm 2 mps 662 mmHg 49%
    16:00 +18°C° 0 mm 2 mps 662 mmHg 55%
    17:00 +18°C° 0 mm 1 mps 661 mmHg 61%
    18:00 +15°C° 0 mm 1 mps 661 mmHg 67%
    19:00 +15°C° 0 mm 1 mps 661 mmHg 69%
    20:00 +14°C° 0 mm 1 mps 661 mmHg 70%
    21:00 +14°C° 0 mm 1 mps 662 mmHg 72%
    22:00 +14°C° 0 mm 1 mps 662 mmHg 71%
    23:00 +13°C° 0 mm 0 mps 662 mmHg 69%

    20 October, Sunday

    Time Temperature Precipitation Wind Pressure Humidity
    00:00 +13°C° 0 mm 0 mps 662 mmHg 68%
    01:00 +12°C° 0 mm 0 mps 662 mmHg 69%
    02:00 +12°C° 0 mm 0 mps 662 mmHg 70%
    03:00 +12°C° 0 mm 0 mps 661 mmHg 71%
    04:00 +11°C° 0 mm 0 mps 661 mmHg 72%
    05:00 +11°C° 0 mm 0 mps 661 mmHg 73%
    06:00 +11°C° 0 mm 0 mps 661 mmHg 73%
    07:00 +12°C° 0 mm 0 mps 662 mmHg 66%
    08:00 +14°C° 0 mm 1 mps 662 mmHg 58%
    09:00 +16°C° 0 mm 1 mps 663 mmHg 50%
    10:00 +18°C° 0 mm 1 mps 663 mmHg 47%
    11:00 +17°C° 0 mm 2 mps 663 mmHg 44%
    12:00 +18°C° 0 mm 2 mps 663 mmHg 42%
    13:00 +18°C° 0 mm 2 mps 662 mmHg 44%
    14:00 +18°C° 0 mm 2 mps 662 mmHg 46%
    15:00 +17°C° 0 mm 2 mps 661 mmHg 49%
    16:00 +16°C° 0 mm 1 mps 661 mmHg 56%
    17:00 +15°C° 0 mm 1 mps 661 mmHg 62%
    18:00 +12°C° 0 mm 0 mps 661 mmHg 69%
    19:00 +12°C° 0 mm 0 mps 661 mmHg 72%
    20:00 +12°C° 0 mm 0 mps 661 mmHg 74%
    21:00 +12°C° 0 mm 1 mps 661 mmHg 76%
    22:00 +11°C° 0 mm 0 mps 661 mmHg 77%
    23:00 +11°C° 0 mm 0 mps 661 mmHg 78%
    Show more